SP6PGH-13 Weather Reports


Display with metric or nautical units.
time (UTC)temp
F
wind
direction
speed
MPH
gust
MPH
rain 1hr
in
rain 24hr
in
rain mn
in
humidity
%
barometer
mb
20260905141259 69 14 3.0 9.0 0.00 0.00 0.00 50 1002.1
20260905135758 69 305 4.0 10.0 0.00 0.00 0.00 49 1002.1
20260905134257 71 294 4.0 10.0 0.00 0.00 0.00 47 1002.2
20260905132756 72 258 4.0 9.0 0.00 0.00 0.00 48 1002.1
20260905131255 72 265 4.0 10.0 0.00 0.00 0.00 46 1002.1
20260905125754 72 266 4.0 7.0 0.00 0.00 0.00 46 1002.1
20260905124253 69 274 3.0 8.0 0.00 0.00 0.00 53 1002.3
20260905122752 69 204 4.0 9.0 0.00 0.00 0.00 53 1002.6
20260905121251 69 266 4.0 9.0 0.00 0.00 0.00 52 1002.8
20260905115750 69 240 4.0 10.0 0.00 0.00 0.00 53 1002.7
20260905114250 71 282 4.0 9.0 0.00 0.00 0.00 49 1002.7
20260905112747 71 234 4.0 9.0 0.00 0.00 0.00 50 1002.8
20260905111247 72 277 4.0 9.0 0.00 0.00 0.00 51 1002.7
20260905105745 71 240 4.0 9.0 0.00 0.00 0.00 53 1002.7
20260905104244 68 266 3.0 10.0 0.00 0.00 0.00 58 1002.7
20260905102743 68 271 4.0 10.0 0.00 0.00 0.00 55 1002.7
20260905101243 67 271 4.0 9.0 0.00 0.00 0.00 59 1002.8
20260905095742 67 251 4.0 8.0 0.00 0.00 0.00 60 1002.5
20260905094241 66 264 4.0 9.0 0.00 0.00 0.00 63 1002.7
20260905092740 68 280 4.0 11.0 0.00 0.00 0.00 60 1002.5
20260905091239 67 258 4.0 7.0 0.00 0.00 0.00 62 1002.5
20260905085737 67 304 4.0 10.0 0.00 0.00 0.00 62 1002.5
20260905084236 66 219 4.0 11.0 0.00 0.00 0.00 63 1002.5
20260905082735 66 318 3.0 9.0 0.00 0.00 0.00 65 1002.3
20260905081234 66 265 4.0 10.0 0.00 0.00 0.00 64 1002.2
20260905075732 65 258 4.0 9.0 0.00 0.00 0.00 68 1002.1
20260905074232 64 278 4.0 12.0 0.00 0.00 0.00 69 1002.0
20260905072731 64 288 4.0 7.0 0.00 0.00 0.00 72 1001.9
20260905071230 63 309 4.0 9.0 0.00 0.00 0.00 76 1001.6
20260905065729 63 264 4.0 7.0 0.00 0.00 0.00 77 1001.6
20260905064228 62 263 3.0 6.0 0.00 0.00 0.00 81 1001.5
20260905062726 62 186 2.0 5.0 0.00 0.00 0.00 85 1001.3
20260905061226 60 285 2.0 4.0 0.00 0.00 0.00 87 1001.2
20260905055724 60 274 2.0 6.0 0.00 0.00 0.00 88 1001.2
20260905054223 60 270 1.0 4.0 0.00 0.00 0.00 87 1001.0
20260905052722 59 276 1.0 4.0 0.00 0.00 0.00 88 1000.9
20260905051221 58 262 1.0 4.0 0.00 0.00 0.00 90 1000.7
20260905045720 58 270 1.0 3.0 0.00 0.00 0.00 90 1000.6
20260905044219 59 267 1.0 5.0 0.00 0.00 0.00 90 1000.5
20260905042718 59 282 2.0 4.0 0.00 0.00 0.00 90 1000.2
20260905041217 59 269 2.0 6.0 0.00 0.00 0.00 90 1000.1
20260905035716 59 240 2.0 5.0 0.00 0.00 0.00 90 999.8
20260905034215 59 225 2.0 4.0 0.00 0.00 0.00 90 999.9
20260905032714 59 275 2.0 4.0 0.00 0.00 0.00 90 999.7
20260905031213 59 211 2.0 4.0 0.00 0.00 0.00 90 999.5
20260905025712 59 264 1.0 4.0 0.00 0.00 0.00 91 999.1
20260905024211 60 276 1.0 4.0 0.00 0.00 0.00 91 999.1
20260905022709 60 268 1.0 3.0 0.00 0.00 0.00 91 998.9
20260905021209 60 264 2.0 4.0 0.00 0.00 0.00 91 998.7
20260905015707 60 269 2.0 6.0 0.00 0.00 0.00 91 998.4
20260905014206 60 257 2.0 6.0 0.00 0.00 0.00 91 998.6
20260905012705 60 276 1.0 4.0 0.00 0.00 0.00 92 998.5
20260905011204 60 270 1.0 6.0 0.00 0.00 0.00 92 998.1
20260905005703 60 282 1.0 4.0 0.00 0.00 0.00 93 998.1
20260905004202 60 206 3.0 6.0 0.00 0.00 0.00 92 998.5
20260905002701 60 300 3.0 7.0 0.01 0.00 0.00 92 998.4
20260905001200 60 292 3.0 9.0 0.01 0.00 0.00 92 998.0
20260904235659 60 262 3.0 7.0 0.02 0.00 0.00 92 997.7
20260904234158 60 246 3.0 7.0 0.02 0.00 0.00 93 997.9
20260904232657 60 228 2.0 4.0 0.03 0.00 0.00 93 997.6
20260904231156 60 223 2.0 6.0 0.03 0.00 0.00 93 997.6
20260904225655 60 330 2.0 5.0 0.05 0.00 0.00 93 996.9
20260904224153 60 276 2.0 5.0 0.05 0.00 0.00 93 996.9
20260904222653 60 222 2.0 4.0 0.06 0.00 0.00 93 997.2
20260904221152 60 315 2.0 5.0 0.04 0.00 0.00 93 997.0
20260904215650 60 276 2.0 4.0 0.04 0.00 0.00 92 996.8
20260904214149 60 300 2.0 4.0 0.07 0.00 0.00 92 997.0
20260904212648 60 281 1.0 4.0 0.06 0.00 0.00 93 997.0
20260904211147 60 300 2.0 5.0 0.09 0.00 0.00 92 996.6
20260904205646 61 276 3.0 6.0 0.04 0.00 0.00 91 996.9
20260904204144 61 318 3.0 7.0 0.04 0.00 0.00 90 996.9
20260904202643 62 274 3.0 5.0 0.00 0.00 0.00 86 997.1
20260904201142 62 312 3.0 5.0 0.03 0.00 0.00 86 996.5
20260904195641 63 321 5.0 12.0 0.03 0.00 0.00 85 996.9
20260904194140 65 258 3.0 10.0 0.03 0.00 0.00 84 996.7
20260904192639 71 276 2.0 5.0 0.00 0.00 0.00 63 995.5
20260904191138 73 4 3.0 7.0 0.00 0.00 0.00 63 995.4
20260904185637 74 46 4.0 10.0 0.00 0.00 0.00 64 995.0
20260904184136 75 245 4.0 13.0 0.00 0.00 0.00 68 994.5
20260904182635 76 120 2.0 6.0 0.00 0.00 0.00 61 993.1
20260904181134 75 108 1.0 6.0 0.00 0.00 0.00 62 993.2
20260904175633 76 185 1.0 4.0 0.00 0.00 0.00 62 992.9
20260904174132 76 222 1.0 4.0 0.00 0.00 0.00 62 993.1
20260904172631 76 180 1.0 4.0 0.00 0.00 0.00 63 993.3
20260904171130 76 247 2.0 5.0 0.00 0.00 0.00 61 993.6
20260904165629 76 206 2.0 6.0 0.00 0.00 0.00 61 993.7
20260904164128 77 316 2.0 7.0 0.00 0.00 0.00 62 993.8
20260904162627 77 259 2.0 7.0 0.00 0.00 0.00 61 994.0
20260904161126 77 233 2.0 7.0 0.00 0.00 0.00 60 994.0
20260904155625 77 299 2.0 7.0 0.00 0.00 0.00 61 994.2
20260904154123 76 222 3.0 7.0 0.00 0.00 0.00 62 994.2
20260904152622 77 270 3.0 9.0 0.00 0.00 0.00 62 994.4
20260904151121 78 158 3.0 7.0 0.00 0.00 0.00 58 994.5
20260904145620 78 288 3.0 10.0 0.00 0.00 0.00 58 994.8
20260904144119 78 305 3.0 7.0 0.00 0.00 0.00 60 994.9
20260904142618 78 192 2.0 7.0 0.00 0.00 0.00 59 995.1